When you browse on this site, cookies collect data to enhance your experience and personalize the content and advertising you see.
Visit our Privacy Policy to learn more. By continuing to use the site, you agree to this use of cookies and data.
  • In United Kingdom
  • List of Countries
  • For 7 days
  • Water Temperature
  • Weather Map
  • Weather Widgets
  • user-avatar
    Login

    Hourly Weather Apollonivka

    Today, 16 September, Monday

    Time Temperature Precipitation Wind Pressure Humidity
    00:00 +14°C° 0 mm 3 mps 757 mmHg 40%
    01:00 +14°C° 0 mm 3 mps 756 mmHg 41%
    02:00 +14°C° 0 mm 4 mps 756 mmHg 41%
    03:00 +13°C° 0 mm 4 mps 756 mmHg 40%
    04:00 +13°C° 0 mm 4 mps 755 mmHg 40%
    05:00 +12°C° 0 mm 4 mps 755 mmHg 40%
    06:00 +14°C° 0 mm 4 mps 755 mmHg 38%
    07:00 +16°C° 0 mm 5 mps 754 mmHg 36%
    08:00 +19°C° 0 mm 5 mps 754 mmHg 33%
    09:00 +21°C° 0 mm 6 mps 754 mmHg 31%
    10:00 +23°C° 0 mm 6 mps 753 mmHg 29%
    11:00 +26°C° 0 mm 7 mps 753 mmHg 27%
    12:00 +26°C° 0 mm 7 mps 752 mmHg 27%
    13:00 +27°C° 0 mm 7 mps 751 mmHg 27%
    14:00 +28°C° 0 mm 7 mps 751 mmHg 27%
    15:00 +27°C° 0 mm 6 mps 751 mmHg 28%
    16:00 +27°C° 0 mm 5 mps 750 mmHg 30%
    17:00 +26°C° 0 mm 5 mps 750 mmHg 31%
    18:00 +25°C° 0 mm 4 mps 750 mmHg 35%
    19:00 +22°C° 0 mm 4 mps 750 mmHg 38%
    20:00 +20°C° 0 mm 4 mps 750 mmHg 42%
    21:00 +20°C° 0 mm 4 mps 750 mmHg 48%
    22:00 +19°C° 0 mm 4 mps 750 mmHg 53%
    23:00 +18°C° 0 mm 4 mps 750 mmHg 58%

    Tomorrow, 17 September, Tuesday

    Time Temperature Precipitation Wind Pressure Humidity
    00:00 +18°C° 0 mm 4 mps 750 mmHg 61%
    01:00 +17°C° 0 mm 3 mps 750 mmHg 63%
    02:00 +17°C° 0 mm 2 mps 750 mmHg 65%
    03:00 +16°C° 0 mm 2 mps 750 mmHg 65%
    04:00 +16°C° 0 mm 2 mps 750 mmHg 64%
    05:00 +16°C° 0 mm 3 mps 750 mmHg 64%
    06:00 +17°C° 0 mm 3 mps 750 mmHg 59%
    07:00 +18°C° 0 mm 3 mps 750 mmHg 55%
    08:00 +19°C° 0 mm 4 mps 750 mmHg 50%
    09:00 +17°C° 0.2 mm 3 mps 750 mmHg 58%
    10:00 +16°C° 0.2 mm 3 mps 750 mmHg 66%
    11:00 +14°C° 0.2 mm 3 mps 750 mmHg 74%
    12:00 +14°C° 0.1 mm 3 mps 750 mmHg 73%
    13:00 +15°C° 0.1 mm 4 mps 749 mmHg 71%
    14:00 +17°C° 0.1 mm 4 mps 749 mmHg 70%
    15:00 +15°C° 0 mm 4 mps 749 mmHg 72%
    16:00 +15°C° 0 mm 5 mps 748 mmHg 74%
    17:00 +15°C° 0 mm 5 mps 748 mmHg 76%
    18:00 +14°C° 0 mm 4 mps 748 mmHg 80%
    19:00 +13°C° 0 mm 4 mps 748 mmHg 83%
    20:00 +13°C° 0 mm 3 mps 749 mmHg 87%
    21:00 +12°C° 0 mm 3 mps 749 mmHg 88%
    22:00 +12°C° 0 mm 4 mps 749 mmHg 88%
    23:00 +12°C° 0 mm 4 mps 749 mmHg 89%

    Day after tomorrow, 18 September, Wednesday

    Time Temperature Precipitation Wind Pressure Humidity
    00:00 +12°C° 0 mm 4 mps 749 mmHg 90%
    01:00 +12°C° 0 mm 3 mps 749 mmHg 91%
    02:00 +11°C° 0 mm 3 mps 748 mmHg 92%
    03:00 +11°C° 0 mm 3 mps 748 mmHg 91%
    04:00 +11°C° 0 mm 3 mps 748 mmHg 91%
    05:00 +11°C° 0 mm 3 mps 748 mmHg 90%
    06:00 +12°C° 0.1 mm 4 mps 747 mmHg 84%
    07:00 +14°C° 0.1 mm 4 mps 747 mmHg 79%
    08:00 +15°C° 0.1 mm 4 mps 747 mmHg 73%
    09:00 +15°C° 0.2 mm 6 mps 747 mmHg 72%
    10:00 +15°C° 0.2 mm 7 mps 746 mmHg 71%
    11:00 +15°C° 0.2 mm 8 mps 746 mmHg 70%
    12:00 +16°C° 0 mm 9 mps 747 mmHg 59%
    13:00 +17°C° 0 mm 9 mps 747 mmHg 47%
    14:00 +17°C° 0 mm 10 mps 748 mmHg 36%
    15:00 +17°C° 0 mm 10 mps 748 mmHg 34%
    16:00 +16°C° 0 mm 9 mps 749 mmHg 32%
    17:00 +15°C° 0 mm 9 mps 749 mmHg 30%
    18:00 +13°C° 0 mm 8 mps 750 mmHg 36%
    19:00 +11°C° 0 mm 6 mps 751 mmHg 41%
    20:00 +9°C° 0 mm 5 mps 751 mmHg 47%
    21:00 +9°C° 0 mm 5 mps 752 mmHg 52%
    22:00 +9°C° 0 mm 6 mps 752 mmHg 56%
    23:00 +9°C° 0 mm 6 mps 753 mmHg 60%

    19 September, Thursday

    Time Temperature Precipitation Wind Pressure Humidity
    00:00 +9°C° 0 mm 6 mps 753 mmHg 61%
    01:00 +8°C° 0 mm 6 mps 753 mmHg 62%
    02:00 +8°C° 0 mm 6 mps 754 mmHg 63%
    03:00 +8°C° 0 mm 5 mps 754 mmHg 65%
    04:00 +7°C° 0 mm 5 mps 754 mmHg 67%
    05:00 +7°C° 0 mm 5 mps 755 mmHg 70%
    06:00 +8°C° 0 mm 5 mps 755 mmHg 66%
    07:00 +9°C° 0 mm 5 mps 755 mmHg 61%
    08:00 +10°C° 0 mm 6 mps 755 mmHg 57%
    09:00 +13°C° 0 mm 6 mps 755 mmHg 52%
    10:00 +15°C° 0 mm 6 mps 755 mmHg 46%
    11:00 +16°C° 0 mm 6 mps 756 mmHg 40%
    12:00 +17°C° 0 mm 6 mps 755 mmHg 38%
    13:00 +17°C° 0 mm 6 mps 755 mmHg 36%
    14:00 +17°C° 0 mm 6 mps 754 mmHg 35%
    15:00 +17°C° 0 mm 5 mps 754 mmHg 35%
    16:00 +16°C° 0 mm 5 mps 754 mmHg 36%
    17:00 +17°C° 0 mm 4 mps 754 mmHg 36%
    18:00 +15°C° 0 mm 4 mps 755 mmHg 40%
    19:00 +13°C° 0 mm 3 mps 755 mmHg 43%
    20:00 +12°C° 0 mm 3 mps 755 mmHg 47%
    21:00 +11°C° 0 mm 3 mps 755 mmHg 52%
    22:00 +10°C° 0 mm 3 mps 755 mmHg 57%
    23:00 +9°C° 0 mm 3 mps 755 mmHg 63%

    20 September, Friday

    Time Temperature Precipitation Wind Pressure Humidity
    00:00 +9°C° 0 mm 3 mps 755 mmHg 68%
    01:00 +8°C° 0 mm 3 mps 755 mmHg 73%
    02:00 +7°C° 0 mm 2 mps 755 mmHg 78%
    03:00 +7°C° 0 mm 2 mps 755 mmHg 81%
    04:00 +7°C° 0 mm 2 mps 755 mmHg 84%
    05:00 +6°C° 0 mm 2 mps 755 mmHg 87%
    06:00 +8°C° 0 mm 2 mps 755 mmHg 80%
    07:00 +9°C° 0 mm 2 mps 755 mmHg 72%
    08:00 +12°C° 0 mm 2 mps 755 mmHg 65%
    09:00 +13°C° 0 mm 2 mps 755 mmHg 58%
    10:00 +14°C° 0 mm 2 mps 755 mmHg 51%
    11:00 +15°C° 0 mm 2 mps 755 mmHg 44%
    12:00 +16°C° 0.1 mm 2 mps 754 mmHg 41%
    13:00 +17°C° 0.1 mm 2 mps 754 mmHg 38%
    14:00 +17°C° 0.1 mm 2 mps 753 mmHg 35%
    15:00 +17°C° 0 mm 2 mps 753 mmHg 37%
    16:00 +16°C° 0 mm 2 mps 753 mmHg 38%
    17:00 +16°C° 0 mm 2 mps 753 mmHg 40%
    18:00 +13°C° 0.7 mm 3 mps 754 mmHg 49%
    19:00 +12°C° 0.7 mm 3 mps 754 mmHg 58%
    20:00 +10°C° 0.7 mm 4 mps 754 mmHg 67%
    21:00 +10°C° 0.1 mm 4 mps 754 mmHg 71%
    22:00 +8°C° 0.1 mm 4 mps 754 mmHg 76%
    23:00 +7°C° 0.1 mm 4 mps 755 mmHg 80%

    21 September, Saturday

    Time Temperature Precipitation Wind Pressure Humidity
    00:00 +7°C° 0 mm 4 mps 755 mmHg 81%
    01:00 +6°C° 0 mm 5 mps 755 mmHg 82%
    02:00 +6°C° 0 mm 5 mps 755 mmHg 83%
    03:00 +6°C° 0 mm 5 mps 755 mmHg 84%
    04:00 +5°C° 0 mm 5 mps 756 mmHg 84%
    05:00 +5°C° 0 mm 4 mps 756 mmHg 85%
    06:00 +6°C° 0 mm 5 mps 756 mmHg 76%
    07:00 +7°C° 0 mm 5 mps 757 mmHg 66%
    08:00 +8°C° 0 mm 6 mps 757 mmHg 57%
    09:00 +9°C° 0 mm 6 mps 757 mmHg 51%
    10:00 +10°C° 0 mm 6 mps 757 mmHg 44%
    11:00 +13°C° 0 mm 6 mps 757 mmHg 37%
    12:00 +13°C° 0 mm 6 mps 757 mmHg 35%
    13:00 +13°C° 0 mm 6 mps 757 mmHg 32%
    14:00 +14°C° 0 mm 6 mps 756 mmHg 29%
    15:00 +13°C° 0 mm 6 mps 757 mmHg 31%
    16:00 +13°C° 0 mm 5 mps 757 mmHg 32%
    17:00 +12°C° 0 mm 5 mps 757 mmHg 33%
    18:00 +11°C° 0 mm 4 mps 758 mmHg 37%
    19:00 +8°C° 0 mm 4 mps 758 mmHg 40%
    20:00 +8°C° 0 mm 3 mps 759 mmHg 44%
    21:00 +7°C° 0 mm 3 mps 759 mmHg 46%
    22:00 +7°C° 0 mm 3 mps 760 mmHg 48%
    23:00 +5°C° 0 mm 3 mps 760 mmHg 50%
    Show more